iso_date,epoch_date,Year,Hour,Min,DOY,POS_DOY,Lat,Lon,BP,Ts,Ta,has_bp,has_ts,has_ta,BuoyID,Buoy_Type,Buoy_Owner,Logistics,Hemisphere
2018-03-29T09:00:00Z,1522314000,2018,9,0,88.375,88.375,-66.9974,-173.8246,1003.8,-0.68,-999.0,yes,yes,no,300234065253050,BD2GI,AOML,Palmer,South
2018-03-29T10:00:28Z,1522317629,2018,10,0,88.417,88.417,-67.0,-173.8298,1003.3,-0.68,-999.0,yes,yes,no,300234065253050,BD2GI,AOML,Palmer,South
2018-03-29T10:59:31Z,1522321171,2018,11,0,88.458,88.458,-67.0034,-173.829,1002.8,-0.68,-999.0,yes,yes,no,300234065253050,BD2GI,AOML,Palmer,South
2018-03-29T12:00:00Z,1522324800,2018,12,0,88.5,88.5,-67.0078,-173.8218,1001.8,-0.68,-999.0,yes,yes,no,300234065253050,BD2GI,AOML,Palmer,South
2018-03-29T13:00:28Z,1522328429,2018,13,0,88.542,88.542,-67.0098,-173.8098,1001.1,-0.68,-999.0,yes,yes,no,300234065253050,BD2GI,AOML,Palmer,South
2018-03-29T13:59:31Z,1522331971,2018,14,0,88.583,88.583,-67.011,-173.7964,1000.5,-0.68,-999.0,yes,yes,no,300234065253050,BD2GI,AOML,Palmer,South
2018-03-29T15:00:00Z,1522335600,2018,15,0,88.625,88.625,-67.0096,-173.7828,1000.1,-0.68,-999.0,yes,yes,no,300234065253050,BD2GI,AOML,Palmer,South
2018-03-29T16:00:28Z,1522339229,2018,16,0,88.667,88.667,-67.0062,-173.7712,999.4,-0.68,-999.0,yes,yes,no,300234065253050,BD2GI,AOML,Palmer,South
2018-03-29T16:59:31Z,1522342771,2018,17,0,88.708,88.708,-67.0022,-173.7576,998.6,-0.68,-999.0,yes,yes,no,300234065253050,BD2GI,AOML,Palmer,South
2018-03-29T18:00:00Z,1522346400,2018,18,0,88.75,88.75,-66.9974,-173.7534,998.2,-0.64,-999.0,yes,yes,no,300234065253050,BD2GI,AOML,Palmer,South
2018-03-29T19:00:28Z,1522350029,2018,19,0,88.792,88.792,-66.9914,-173.7548,997.9,-0.64,-999.0,yes,yes,no,300234065253050,BD2GI,AOML,Palmer,South
2018-03-29T19:59:31Z,1522353571,2018,20,0,88.833,88.833,-66.9892,-173.7606,997.6,-0.64,-999.0,yes,yes,no,300234065253050,BD2GI,AOML,Palmer,South
2018-03-29T21:00:00Z,1522357200,2018,21,0,88.875,88.875,-66.9844,-173.7744,997.5,-0.64,-999.0,yes,yes,no,300234065253050,BD2GI,AOML,Palmer,South
2018-03-29T22:00:28Z,1522360829,2018,22,0,88.917,88.917,-66.9844,-173.7858,997.9,-0.64,-999.0,yes,yes,no,300234065253050,BD2GI,AOML,Palmer,South
2018-03-29T22:59:31Z,1522364371,2018,23,0,88.958,88.958,-66.9854,-173.7946,998.0,-0.64,-999.0,yes,yes,no,300234065253050,BD2GI,AOML,Palmer,South
2018-03-30T00:00:00Z,1522368000,2018,0,0,89.0,89.0,-66.9882,-173.7994,998.4,-0.64,-999.0,yes,yes,no,300234065253050,BD2GI,AOML,Palmer,South
2018-03-30T01:00:28Z,1522371629,2018,1,0,89.042,89.042,-66.991,-173.7954,998.4,-0.64,-999.0,yes,yes,no,300234065253050,BD2GI,AOML,Palmer,South
2018-03-30T01:59:31Z,1522375171,2018,2,0,89.083,89.083,-66.9928,-173.7872,998.4,-0.64,-999.0,yes,yes,no,300234065253050,BD2GI,AOML,Palmer,South
2018-03-30T03:00:00Z,1522378800,2018,3,0,89.125,89.125,-66.9928,-173.7782,998.2,-0.64,-999.0,yes,yes,no,300234065253050,BD2GI,AOML,Palmer,South
2018-03-30T04:00:28Z,1522382429,2018,4,0,89.167,89.167,-66.9912,-173.7692,998.1,-0.68,-999.0,yes,yes,no,300234065253050,BD2GI,AOML,Palmer,South
2018-03-30T04:59:31Z,1522385971,2018,5,0,89.208,89.208,-66.9882,-173.7598,997.8,-0.68,-999.0,yes,yes,no,300234065253050,BD2GI,AOML,Palmer,South
2018-03-30T06:00:00Z,1522389600,2018,6,0,89.25,89.25,-66.9844,-173.7532,997.9,-0.68,-999.0,yes,yes,no,300234065253050,BD2GI,AOML,Palmer,South
2018-03-30T07:00:28Z,1522393229,2018,7,0,89.292,89.292,-66.9794,-173.75,997.6,-0.68,-999.0,yes,yes,no,300234065253050,BD2GI,AOML,Palmer,South
2018-03-30T07:59:31Z,1522396771,2018,8,0,89.333,89.333,-66.9752,-173.7508,997.4,-0.68,-999.0,yes,yes,no,300234065253050,BD2GI,AOML,Palmer,South
2018-03-30T09:00:00Z,1522400400,2018,9,0,89.375,89.375,-66.9712,-173.7552,997.3,-0.68,-999.0,yes,yes,no,300234065253050,BD2GI,AOML,Palmer,South
2018-03-30T10:00:28Z,1522404029,2018,10,0,89.417,89.417,-66.9686,-173.7608,997.5,-0.68,-999.0,yes,yes,no,300234065253050,BD2GI,AOML,Palmer,South
2018-03-30T10:59:31Z,1522407571,2018,11,0,89.458,89.458,-66.9674,-173.7674,997.5,-0.68,-999.0,yes,yes,no,300234065253050,BD2GI,AOML,Palmer,South
2018-03-30T12:00:00Z,1522411200,2018,12,0,89.5,89.5,-66.968,-173.7708,997.2,-0.68,-999.0,yes,yes,no,300234065253050,BD2GI,AOML,Palmer,South
2018-03-30T13:00:28Z,1522414829,2018,13,0,89.542,89.542,-66.9704,-173.7686,997.2,-0.68,-999.0,yes,yes,no,300234065253050,BD2GI,AOML,Palmer,South
2018-03-30T13:59:31Z,1522418371,2018,14,0,89.583,89.583,-66.9718,-173.7638,997.1,-0.68,-999.0,yes,yes,no,300234065253050,BD2GI,AOML,Palmer,South
2018-03-30T15:00:00Z,1522422000,2018,15,0,89.625,89.625,-66.9716,-173.7534,996.9,-0.68,-999.0,yes,yes,no,300234065253050,BD2GI,AOML,Palmer,South
2018-03-30T16:00:28Z,1522425629,2018,16,0,89.667,89.667,-66.9732,-173.7446,996.7,-0.68,-999.0,yes,yes,no,300234065253050,BD2GI,AOML,Palmer,South
2018-03-30T16:59:31Z,1522429171,2018,17,0,89.708,89.708,-66.9716,-173.7338,996.5,-0.68,-999.0,yes,yes,no,300234065253050,BD2GI,AOML,Palmer,South
2018-03-30T18:00:00Z,1522432800,2018,18,0,89.75,89.75,-66.9692,-173.725,996.4,-0.68,-999.0,yes,yes,no,300234065253050,BD2GI,AOML,Palmer,South
2018-03-30T19:00:28Z,1522436429,2018,19,0,89.792,89.792,-66.9652,-173.7206,996.3,-0.71,-999.0,yes,yes,no,300234065253050,BD2GI,AOML,Palmer,South
2018-03-30T19:59:31Z,1522439971,2018,20,0,89.833,89.833,-66.9628,-173.719,996.4,-0.71,-999.0,yes,yes,no,300234065253050,BD2GI,AOML,Palmer,South
2018-03-30T21:00:00Z,1522443600,2018,21,0,89.875,89.875,-66.9602,-173.7206,996.5,-0.68,-999.0,yes,yes,no,300234065253050,BD2GI,AOML,Palmer,South
2018-03-30T22:00:28Z,1522447229,2018,22,0,89.917,89.917,-66.958,-173.726,996.5,-0.71,-999.0,yes,yes,no,300234065253050,BD2GI,AOML,Palmer,South
2018-03-30T22:59:31Z,1522450771,2018,23,0,89.958,89.958,-66.9576,-173.7334,996.9,-0.71,-999.0,yes,yes,no,300234065253050,BD2GI,AOML,Palmer,South
2018-03-31T00:00:00Z,1522454400,2018,0,0,90.0,90.0,-66.959,-173.738,996.7,-0.68,-999.0,yes,yes,no,300234065253050,BD2GI,AOML,Palmer,South
2018-03-31T01:00:28Z,1522458029,2018,1,0,90.042,90.042,-66.9612,-173.7388,996.9,-0.68,-999.0,yes,yes,no,300234065253050,BD2GI,AOML,Palmer,South
2018-03-31T01:59:31Z,1522461571,2018,2,0,90.083,90.083,-66.9634,-173.7352,996.9,-0.68,-999.0,yes,yes,no,300234065253050,BD2GI,AOML,Palmer,South
2018-03-31T03:00:00Z,1522465200,2018,3,0,90.125,90.125,-66.9652,-173.7286,997.1,-0.68,-999.0,yes,yes,no,300234065253050,BD2GI,AOML,Palmer,South
2018-03-31T04:00:28Z,1522468829,2018,4,0,90.167,90.167,-66.9656,-173.722,997.2,-0.71,-999.0,yes,yes,no,300234065253050,BD2GI,AOML,Palmer,South
2018-03-31T04:59:31Z,1522472371,2018,5,0,90.208,90.208,-66.9646,-173.7166,997.2,-0.64,-999.0,yes,yes,no,300234065253050,BD2GI,AOML,Palmer,South
2018-03-31T06:00:00Z,1522476000,2018,6,0,90.25,90.25,-66.9626,-173.7112,997.5,-0.64,-999.0,yes,yes,no,300234065253050,BD2GI,AOML,Palmer,South
2018-03-31T07:00:28Z,1522479629,2018,7,0,90.292,90.292,-66.9596,-173.7084,997.7,-0.68,-999.0,yes,yes,no,300234065253050,BD2GI,AOML,Palmer,South
2018-03-31T07:59:31Z,1522483171,2018,8,0,90.333,90.333,-66.9574,-173.7094,997.9,-0.68,-999.0,yes,yes,no,300234065253050,BD2GI,AOML,Palmer,South
2018-03-31T09:00:00Z,1522486800,2018,9,0,90.375,90.375,-66.9552,-173.712,998.2,-0.68,-999.0,yes,yes,no,300234065253050,BD2GI,AOML,Palmer,South
2018-03-31T10:00:28Z,1522490429,2018,10,0,90.417,90.417,-66.9532,-173.7172,998.2,-0.68,-999.0,yes,yes,no,300234065253050,BD2GI,AOML,Palmer,South
2018-03-31T10:59:31Z,1522493971,2018,11,0,90.458,90.458,-66.9512,-173.7232,998.4,-0.71,-999.0,yes,yes,no,300234065253050,BD2GI,AOML,Palmer,South
2018-03-31T12:00:00Z,1522497600,2018,12,0,90.5,90.5,-66.951,-173.7302,998.7,-0.75,-999.0,yes,yes,no,300234065253050,BD2GI,AOML,Palmer,South
2018-03-31T13:00:28Z,1522501229,2018,13,0,90.542,90.542,-66.9514,-173.7362,998.7,-0.68,-999.0,yes,yes,no,300234065253050,BD2GI,AOML,Palmer,South
2018-03-31T13:59:31Z,1522504771,2018,14,0,90.583,90.583,-66.9528,-173.7384,998.6,-0.68,-999.0,yes,yes,no,300234065253050,BD2GI,AOML,Palmer,South
2018-03-31T15:00:00Z,1522508400,2018,15,0,90.625,90.625,-66.954,-173.737,998.5,-0.68,-999.0,yes,yes,no,300234065253050,BD2GI,AOML,Palmer,South
2018-03-31T16:00:28Z,1522512029,2018,16,0,90.667,90.667,-66.9538,-173.7358,998.6,-0.68,-999.0,yes,yes,no,300234065253050,BD2GI,AOML,Palmer,South
2018-03-31T16:59:31Z,1522515571,2018,17,0,90.708,90.708,-66.954,-173.7338,998.6,-0.68,-999.0,yes,yes,no,300234065253050,BD2GI,AOML,Palmer,South
2018-03-31T18:00:00Z,1522519200,2018,18,0,90.75,90.75,-66.9532,-173.7312,998.8,-0.68,-999.0,yes,yes,no,300234065253050,BD2GI,AOML,Palmer,South
2018-03-31T19:00:28Z,1522522829,2018,19,0,90.792,90.792,-66.9514,-173.729,998.6,-0.68,-999.0,yes,yes,no,300234065253050,BD2GI,AOML,Palmer,South
2018-03-31T19:59:31Z,1522526371,2018,20,0,90.833,90.833,-66.9496,-173.7288,998.5,-0.68,-999.0,yes,yes,no,300234065253050,BD2GI,AOML,Palmer,South
2018-03-31T21:00:00Z,1522530000,2018,21,0,90.875,90.875,-66.9476,-173.7318,998.6,-0.64,-999.0,yes,yes,no,300234065253050,BD2GI,AOML,Palmer,South
2018-03-31T22:00:28Z,1522533629,2018,22,0,90.917,90.917,-66.9464,-173.738,998.5,-0.64,-999.0,yes,yes,no,300234065253050,BD2GI,AOML,Palmer,South
2018-03-31T22:59:31Z,1522537171,2018,23,0,90.958,90.958,-66.945,-173.7474,998.5,-0.64,-999.0,yes,yes,no,300234065253050,BD2GI,AOML,Palmer,South
2018-04-01T00:00:00Z,1522540800,2018,0,0,91.0,91.0,-66.9444,-173.756,998.4,-0.68,-999.0,yes,yes,no,300234065253050,BD2GI,AOML,Palmer,South
2018-04-01T01:00:28Z,1522544429,2018,1,0,91.042,91.042,-66.945,-173.7646,998.0,-0.64,-999.0,yes,yes,no,300234065253050,BD2GI,AOML,Palmer,South
2018-04-01T01:59:31Z,1522547971,2018,2,0,91.083,91.083,-66.946,-173.7718,998.5,-0.68,-999.0,yes,yes,no,300234065253050,BD2GI,AOML,Palmer,South
2018-04-01T03:00:00Z,1522551600,2018,3,0,91.125,91.125,-66.948,-173.7792,999.0,-0.68,-999.0,yes,yes,no,300234065253050,BD2GI,AOML,Palmer,South
2018-04-01T04:00:28Z,1522555229,2018,4,0,91.167,91.167,-66.9498,-173.7834,999.3,-0.68,-999.0,yes,yes,no,300234065253050,BD2GI,AOML,Palmer,South
2018-04-01T04:59:31Z,1522558771,2018,5,0,91.208,91.208,-66.9492,-173.7922,996.1,-0.68,-999.0,yes,yes,no,300234065253050,BD2GI,AOML,Palmer,South
2018-04-01T06:00:00Z,1522562400,2018,6,0,91.25,91.25,-66.954,-173.793,995.7,-0.68,-999.0,yes,yes,no,300234065253050,BD2GI,AOML,Palmer,South
2018-04-01T07:00:28Z,1522566029,2018,7,0,91.292,91.292,-66.9558,-173.7954,995.2,-0.64,-999.0,yes,yes,no,300234065253050,BD2GI,AOML,Palmer,South
2018-04-01T07:59:31Z,1522569571,2018,8,0,91.333,91.333,-66.9572,-173.7952,994.9,-0.64,-999.0,yes,yes,no,300234065253050,BD2GI,AOML,Palmer,South
2018-04-01T09:00:00Z,1522573200,2018,9,0,91.375,91.375,-66.9584,-173.8006,994.2,-0.61,-999.0,yes,yes,no,300234065253050,BD2GI,AOML,Palmer,South
2018-04-01T10:00:28Z,1522576829,2018,10,0,91.417,91.417,-66.96,-173.8046,993.4,-0.64,-999.0,yes,yes,no,300234065253050,BD2GI,AOML,Palmer,South
2018-04-01T10:59:31Z,1522580371,2018,11,0,91.458,91.458,-66.9608,-173.8142,992.4,-0.64,-999.0,yes,yes,no,300234065253050,BD2GI,AOML,Palmer,South
2018-04-01T12:00:00Z,1522584000,2018,12,0,91.5,91.5,-66.9624,-173.8214,991.5,-0.64,-999.0,yes,yes,no,300234065253050,BD2GI,AOML,Palmer,South
2018-04-01T13:00:28Z,1522587629,2018,13,0,91.542,91.542,-66.9654,-173.828,989.9,-0.64,-999.0,yes,yes,no,300234065253050,BD2GI,AOML,Palmer,South
2018-04-01T13:59:31Z,1522591171,2018,14,0,91.583,91.583,-66.9692,-173.8358,988.9,-0.64,-999.0,yes,yes,no,300234065253050,BD2GI,AOML,Palmer,South
2018-04-01T15:00:00Z,1522594800,2018,15,0,91.625,91.625,-66.9744,-173.841,987.7,-0.68,-999.0,yes,yes,no,300234065253050,BD2GI,AOML,Palmer,South
2018-04-01T16:00:28Z,1522598429,2018,16,0,91.667,91.667,-66.979,-173.8434,987.0,-0.68,-999.0,yes,yes,no,300234065253050,BD2GI,AOML,Palmer,South
2018-04-01T16:59:31Z,1522601971,2018,17,0,91.708,91.708,-66.9848,-173.8436,986.1,-0.68,-999.0,yes,yes,no,300234065253050,BD2GI,AOML,Palmer,South
2018-04-01T18:00:00Z,1522605600,2018,18,0,91.75,91.75,-66.9848,-173.8436,984.9,-0.68,-999.0,yes,yes,no,300234065253050,BD2GI,AOML,Palmer,South
2018-04-01T19:00:28Z,1522609229,2018,19,0,91.792,91.792,-66.9938,-173.8448,983.5,-0.68,-999.0,yes,yes,no,300234065253050,BD2GI,AOML,Palmer,South
2018-04-01T19:59:31Z,1522612771,2018,20,0,91.833,91.833,-66.998,-173.8454,982.1,-0.68,-999.0,yes,yes,no,300234065253050,BD2GI,AOML,Palmer,South
2018-04-01T21:00:00Z,1522616400,2018,21,0,91.875,91.875,-67.0006,-173.8412,981.1,-0.68,-999.0,yes,yes,no,300234065253050,BD2GI,AOML,Palmer,South
2018-04-01T22:00:28Z,1522620029,2018,22,0,91.917,91.917,-67.0026,-173.839,980.1,-0.68,-999.0,yes,yes,no,300234065253050,BD2GI,AOML,Palmer,South
2018-04-01T22:59:31Z,1522623571,2018,23,0,91.958,91.958,-67.0042,-173.8378,979.1,-0.68,-999.0,yes,yes,no,300234065253050,BD2GI,AOML,Palmer,South
2018-04-02T00:00:00Z,1522627200,2018,0,0,92.0,92.0,-67.005,-173.8368,977.9,-0.68,-999.0,yes,yes,no,300234065253050,BD2GI,AOML,Palmer,South
2018-04-02T01:00:28Z,1522630829,2018,1,0,92.042,92.042,-67.0064,-173.8378,977.1,-0.68,-999.0,yes,yes,no,300234065253050,BD2GI,AOML,Palmer,South
2018-04-02T01:59:31Z,1522634371,2018,2,0,92.083,92.083,-67.0072,-173.8362,976.5,-0.68,-999.0,yes,yes,no,300234065253050,BD2GI,AOML,Palmer,South
2018-04-02T03:00:00Z,1522638000,2018,3,0,92.125,92.125,-67.0086,-173.835,975.7,-0.68,-999.0,yes,yes,no,300234065253050,BD2GI,AOML,Palmer,South
2018-04-02T04:00:28Z,1522641629,2018,4,0,92.167,92.167,-67.0084,-173.8324,975.3,-0.68,-999.0,yes,yes,no,300234065253050,BD2GI,AOML,Palmer,South
2018-04-02T04:59:31Z,1522645171,2018,5,0,92.208,92.208,-67.0098,-173.827,974.8,-0.68,-999.0,yes,yes,no,300234065253050,BD2GI,AOML,Palmer,South
2018-04-02T06:00:00Z,1522648800,2018,6,0,92.25,92.25,-67.011,-173.8242,974.6,-0.68,-999.0,yes,yes,no,300234065253050,BD2GI,AOML,Palmer,South
2018-04-02T07:00:28Z,1522652429,2018,7,0,92.292,92.292,-67.0122,-173.8218,974.3,-0.68,-999.0,yes,yes,no,300234065253050,BD2GI,AOML,Palmer,South
2018-04-02T07:59:31Z,1522655971,2018,8,0,92.333,92.333,-67.0136,-173.8184,974.2,-0.68,-999.0,yes,yes,no,300234065253050,BD2GI,AOML,Palmer,South
2018-04-02T09:00:00Z,1522659600,2018,9,0,92.375,92.375,-67.0156,-173.8158,974.2,-0.68,-999.0,yes,yes,no,300234065253050,BD2GI,AOML,Palmer,South
2018-04-02T10:00:28Z,1522663229,2018,10,0,92.417,92.417,-67.0174,-173.8114,974.3,-0.68,-999.0,yes,yes,no,300234065253050,BD2GI,AOML,Palmer,South
2018-04-02T10:59:31Z,1522666771,2018,11,0,92.458,92.458,-67.0194,-173.8066,974.2,-0.68,-999.0,yes,yes,no,300234065253050,BD2GI,AOML,Palmer,South
2018-04-02T12:00:00Z,1522670400,2018,12,0,92.5,92.5,-67.0206,-173.8002,974.3,-0.68,-999.0,yes,yes,no,300234065253050,BD2GI,AOML,Palmer,South
2018-04-02T13:00:28Z,1522674029,2018,13,0,92.542,92.542,-67.0222,-173.7956,974.2,-0.68,-999.0,yes,yes,no,300234065253050,BD2GI,AOML,Palmer,South
2018-04-02T13:59:31Z,1522677571,2018,14,0,92.583,92.583,-67.0226,-173.7908,974.7,-0.68,-999.0,yes,yes,no,300234065253050,BD2GI,AOML,Palmer,South
2018-04-02T15:00:00Z,1522681200,2018,15,0,92.625,92.625,-67.0218,-173.7868,975.0,-0.68,-999.0,yes,yes,no,300234065253050,BD2GI,AOML,Palmer,South
2018-04-02T16:00:28Z,1522684829,2018,16,0,92.667,92.667,-67.0226,-173.7868,975.1,-0.68,-999.0,yes,yes,no,300234065253050,BD2GI,AOML,Palmer,South
2018-04-02T16:59:31Z,1522688371,2018,17,0,92.708,92.708,-67.0236,-173.7862,975.6,-0.68,-999.0,yes,yes,no,300234065253050,BD2GI,AOML,Palmer,South
2018-04-02T18:00:00Z,1522692000,2018,18,0,92.75,92.75,-67.0242,-173.7848,976.2,-0.68,-999.0,yes,yes,no,300234065253050,BD2GI,AOML,Palmer,South
2018-04-02T19:00:28Z,1522695629,2018,19,0,92.792,92.792,-67.0254,-173.7848,976.5,-0.68,-999.0,yes,yes,no,300234065253050,BD2GI,AOML,Palmer,South
2018-04-02T19:59:31Z,1522699171,2018,20,0,92.833,92.833,-67.0266,-173.7888,977.0,-0.68,-999.0,yes,yes,no,300234065253050,BD2GI,AOML,Palmer,South
2018-04-02T21:00:00Z,1522702800,2018,21,0,92.875,92.875,-67.0274,-173.7924,977.4,-0.68,-999.0,yes,yes,no,300234065253050,BD2GI,AOML,Palmer,South
2018-04-02T22:00:28Z,1522706429,2018,22,0,92.917,92.917,-67.0306,-173.795,977.6,-0.68,-999.0,yes,yes,no,300234065253050,BD2GI,AOML,Palmer,South
2018-04-02T22:59:31Z,1522709971,2018,23,0,92.958,92.958,-67.0314,-173.7946,978.0,-0.68,-999.0,yes,yes,no,300234065253050,BD2GI,AOML,Palmer,South
2018-04-03T00:00:00Z,1522713600,2018,0,0,93.0,93.0,-67.0328,-173.7934,978.2,-0.68,-999.0,yes,yes,no,300234065253050,BD2GI,AOML,Palmer,South
2018-04-03T01:00:28Z,1522717229,2018,1,0,93.042,93.042,-67.0344,-173.7926,978.3,-0.68,-999.0,yes,yes,no,300234065253050,BD2GI,AOML,Palmer,South
2018-04-03T01:59:31Z,1522720771,2018,2,0,93.083,93.083,-67.0348,-173.7908,978.0,-0.68,-999.0,yes,yes,no,300234065253050,BD2GI,AOML,Palmer,South
2018-04-03T03:00:00Z,1522724400,2018,3,0,93.125,93.125,-67.0336,-173.7884,977.8,-0.68,-999.0,yes,yes,no,300234065253050,BD2GI,AOML,Palmer,South
2018-04-03T04:00:28Z,1522728029,2018,4,0,93.167,93.167,-67.033,-173.7866,977.6,-0.68,-999.0,yes,yes,no,300234065253050,BD2GI,AOML,Palmer,South
2018-04-03T04:59:31Z,1522731571,2018,5,0,93.208,93.208,-67.0324,-173.787,977.5,-0.68,-999.0,yes,yes,no,300234065253050,BD2GI,AOML,Palmer,South
2018-04-03T06:00:00Z,1522735200,2018,6,0,93.25,93.25,-67.0314,-173.7856,977.2,-0.68,-999.0,yes,yes,no,300234065253050,BD2GI,AOML,Palmer,South
2018-04-03T07:00:28Z,1522738829,2018,7,0,93.292,93.292,-67.0304,-173.7836,976.8,-0.68,-999.0,yes,yes,no,300234065253050,BD2GI,AOML,Palmer,South
2018-04-03T07:59:31Z,1522742371,2018,8,0,93.333,93.333,-67.0288,-173.7854,975.9,-0.68,-999.0,yes,yes,no,300234065253050,BD2GI,AOML,Palmer,South
2018-04-03T09:00:00Z,1522746000,2018,9,0,93.375,93.375,-67.0298,-173.7894,975.6,-0.68,-999.0,yes,yes,no,300234065253050,BD2GI,AOML,Palmer,South
2018-04-03T10:00:28Z,1522749629,2018,10,0,93.417,93.417,-67.0316,-173.7914,975.2,-0.68,-999.0,yes,yes,no,300234065253050,BD2GI,AOML,Palmer,South
2018-04-03T10:59:31Z,1522753171,2018,11,0,93.458,93.458,-67.0334,-173.7932,974.1,-0.68,-999.0,yes,yes,no,300234065253050,BD2GI,AOML,Palmer,South
2018-04-03T12:00:00Z,1522756800,2018,12,0,93.5,93.5,-67.036,-173.7904,973.4,-0.68,-999.0,yes,yes,no,300234065253050,BD2GI,AOML,Palmer,South
2018-04-03T13:00:28Z,1522760429,2018,13,0,93.542,93.542,-67.0384,-173.7882,972.3,-0.68,-999.0,yes,yes,no,300234065253050,BD2GI,AOML,Palmer,South
2018-04-03T13:59:31Z,1522763971,2018,14,0,93.583,93.583,-67.0406,-173.7812,971.5,-0.68,-999.0,yes,yes,no,300234065253050,BD2GI,AOML,Palmer,South
2018-04-03T15:00:00Z,1522767600,2018,15,0,93.625,93.625,-67.041,-173.778,970.5,-0.68,-999.0,yes,yes,no,300234065253050,BD2GI,AOML,Palmer,South
2018-04-03T16:00:28Z,1522771229,2018,16,0,93.667,93.667,-67.0416,-173.7732,969.5,-0.68,-999.0,yes,yes,no,300234065253050,BD2GI,AOML,Palmer,South
2018-04-03T16:59:31Z,1522774771,2018,17,0,93.708,93.708,-67.042,-173.7712,968.4,-0.68,-999.0,yes,yes,no,300234065253050,BD2GI,AOML,Palmer,South
2018-04-03T18:00:00Z,1522778400,2018,18,0,93.75,93.75,-67.042,-173.7682,967.5,-0.68,-999.0,yes,yes,no,300234065253050,BD2GI,AOML,Palmer,South
2018-04-03T19:00:28Z,1522782029,2018,19,0,93.792,93.792,-67.042,-173.767,967.2,-0.68,-999.0,yes,yes,no,300234065253050,BD2GI,AOML,Palmer,South
2018-04-03T19:59:31Z,1522785571,2018,20,0,93.833,93.833,-67.0422,-173.766,966.4,-0.68,-999.0,yes,yes,no,300234065253050,BD2GI,AOML,Palmer,South
2018-04-03T21:00:00Z,1522789200,2018,21,0,93.875,93.875,-67.0428,-173.7676,965.5,-0.68,-999.0,yes,yes,no,300234065253050,BD2GI,AOML,Palmer,South
2018-04-03T22:00:28Z,1522792829,2018,22,0,93.917,93.917,-67.0442,-173.7692,965.2,-0.68,-999.0,yes,yes,no,300234065253050,BD2GI,AOML,Palmer,South
2018-04-03T22:59:31Z,1522796371,2018,23,0,93.958,93.958,-67.045,-173.7708,964.6,-0.68,-999.0,yes,yes,no,300234065253050,BD2GI,AOML,Palmer,South
2018-04-04T00:00:00Z,1522800000,2018,0,0,94.0,94.0,-67.0466,-173.772,963.9,-0.68,-999.0,yes,yes,no,300234065253050,BD2GI,AOML,Palmer,South
2018-04-04T01:00:28Z,1522803629,2018,1,0,94.042,94.042,-67.0488,-173.7716,963.4,-0.68,-999.0,yes,yes,no,300234065253050,BD2GI,AOML,Palmer,South
2018-04-04T01:59:31Z,1522807171,2018,2,0,94.083,94.083,-67.051,-173.7722,962.8,-0.68,-999.0,yes,yes,no,300234065253050,BD2GI,AOML,Palmer,South
2018-04-04T03:00:00Z,1522810800,2018,3,0,94.125,94.125,-67.0536,-173.7714,962.4,-0.68,-999.0,yes,yes,no,300234065253050,BD2GI,AOML,Palmer,South
2018-04-04T04:00:28Z,1522814429,2018,4,0,94.167,94.167,-67.056,-173.7696,962.2,-0.68,-999.0,yes,yes,no,300234065253050,BD2GI,AOML,Palmer,South
2018-04-04T04:59:31Z,1522817971,2018,5,0,94.208,94.208,-67.0576,-173.7616,962.2,-0.68,-999.0,yes,yes,no,300234065253050,BD2GI,AOML,Palmer,South
2018-04-04T06:00:00Z,1522821600,2018,6,0,94.25,94.25,-67.0574,-173.7548,962.0,-0.68,-999.0,yes,yes,no,300234065253050,BD2GI,AOML,Palmer,South
2018-04-04T07:00:28Z,1522825229,2018,7,0,94.292,94.292,-67.056,-173.7492,962.0,-0.68,-999.0,yes,yes,no,300234065253050,BD2GI,AOML,Palmer,South
2018-04-04T07:59:31Z,1522828771,2018,8,0,94.333,94.333,-67.0546,-173.745,962.0,-0.68,-999.0,yes,yes,no,300234065253050,BD2GI,AOML,Palmer,South
2018-04-04T09:00:00Z,1522832400,2018,9,0,94.375,94.375,-67.0538,-173.7436,961.9,-0.68,-999.0,yes,yes,no,300234065253050,BD2GI,AOML,Palmer,South
2018-04-04T10:00:28Z,1522836029,2018,10,0,94.417,94.417,-67.0526,-173.7414,961.8,-0.68,-999.0,yes,yes,no,300234065253050,BD2GI,AOML,Palmer,South
2018-04-04T10:59:31Z,1522839571,2018,11,0,94.458,94.458,-67.0518,-173.7438,961.7,-0.68,-999.0,yes,yes,no,300234065253050,BD2GI,AOML,Palmer,South
2018-04-04T12:00:00Z,1522843200,2018,12,0,94.5,94.5,-67.053,-173.746,961.5,-0.68,-999.0,yes,yes,no,300234065253050,BD2GI,AOML,Palmer,South
2018-04-04T13:00:28Z,1522846829,2018,13,0,94.542,94.542,-67.0548,-173.7468,961.2,-0.68,-999.0,yes,yes,no,300234065253050,BD2GI,AOML,Palmer,South
2018-04-04T13:59:31Z,1522850371,2018,14,0,94.583,94.583,-67.0568,-173.7456,960.8,-0.68,-999.0,yes,yes,no,300234065253050,BD2GI,AOML,Palmer,South
2018-04-04T15:00:00Z,1522854000,2018,15,0,94.625,94.625,-67.0584,-173.7422,960.5,-0.68,-999.0,yes,yes,no,300234065253050,BD2GI,AOML,Palmer,South
2018-04-04T16:00:28Z,1522857629,2018,16,0,94.667,94.667,-67.0604,-173.7384,960.5,-0.68,-999.0,yes,yes,no,300234065253050,BD2GI,AOML,Palmer,South
2018-04-04T16:59:31Z,1522861171,2018,17,0,94.708,94.708,-67.0618,-173.734,960.4,-0.68,-999.0,yes,yes,no,300234065253050,BD2GI,AOML,Palmer,South
2018-04-04T18:00:00Z,1522864800,2018,18,0,94.75,94.75,-67.0634,-173.7282,960.3,-0.68,-999.0,yes,yes,no,300234065253050,BD2GI,AOML,Palmer,South
2018-04-04T19:00:28Z,1522868429,2018,19,0,94.792,94.792,-67.0638,-173.7204,960.3,-0.68,-999.0,yes,yes,no,300234065253050,BD2GI,AOML,Palmer,South
2018-04-04T19:59:31Z,1522871971,2018,20,0,94.833,94.833,-67.063,-173.713,960.6,-0.68,-999.0,yes,yes,no,300234065253050,BD2GI,AOML,Palmer,South
2018-04-04T21:00:00Z,1522875600,2018,21,0,94.875,94.875,-67.0612,-173.7122,960.7,-0.64,-999.0,yes,yes,no,300234065253050,BD2GI,AOML,Palmer,South
2018-04-04T22:00:28Z,1522879229,2018,22,0,94.917,94.917,-67.059,-173.715,961.0,-0.68,-999.0,yes,yes,no,300234065253050,BD2GI,AOML,Palmer,South
2018-04-04T22:59:31Z,1522882771,2018,23,0,94.958,94.958,-67.0572,-173.7208,961.0,-0.68,-999.0,yes,yes,no,300234065253050,BD2GI,AOML,Palmer,South
2018-04-05T00:00:00Z,1522886400,2018,0,0,95.0,95.0,-67.0574,-173.729,961.0,-0.64,-999.0,yes,yes,no,300234065253050,BD2GI,AOML,Palmer,South
2018-04-05T01:00:28Z,1522890029,2018,1,0,95.042,95.042,-67.0594,-173.736,961.3,-0.64,-999.0,yes,yes,no,300234065253050,BD2GI,AOML,Palmer,South
2018-04-05T01:59:31Z,1522893571,2018,2,0,95.083,95.083,-67.0614,-173.7382,961.5,-0.68,-999.0,yes,yes,no,300234065253050,BD2GI,AOML,Palmer,South
2018-04-05T03:00:00Z,1522897200,2018,3,0,95.125,95.125,-67.0634,-173.7416,962.0,-0.68,-999.0,yes,yes,no,300234065253050,BD2GI,AOML,Palmer,South
2018-04-05T04:00:28Z,1522900829,2018,4,0,95.167,95.167,-67.0646,-173.7412,962.5,-0.68,-999.0,yes,yes,no,300234065253050,BD2GI,AOML,Palmer,South
2018-04-05T04:59:31Z,1522904371,2018,5,0,95.208,95.208,-67.0658,-173.7414,963.0,-0.68,-999.0,yes,yes,no,300234065253050,BD2GI,AOML,Palmer,South
2018-04-05T06:00:00Z,1522908000,2018,6,0,95.25,95.25,-67.0664,-173.7382,963.6,-0.68,-999.0,yes,yes,no,300234065253050,BD2GI,AOML,Palmer,South